Fairfield, IL

6:39 AM CDT on July 22, 2017 (GMT -0500)
Fairfield Municipal

Weather History for KFWC - May, 2014

Change the Weather History Date:

Friday, May 30, 2014

  Actual Average (KEVV) Record (KEVV)
Temperature  
Mean Temperature 78 °F -  
Max Temperature 86 °F 80 °F 94 °F (1977)
Min Temperature 69 °F 59 °F 37 °F (1947)
Cooling Degree Days 12    
Growing Degree Days 28 (Base 50)    
Moisture  
Dew Point 71 °F    
Average Humidity 86    
Maximum Humidity 100    
Minimum Humidity 58    
Precipitation  
Precipitation 0.00 in - - ()
Sea Level Pressure  
Sea Level Pressure 30.05 in    
Wind  
Wind Speed 1 mph (NE)    
Max Wind Speed 10 mph    
Max Gust Speed -    
Visibility 7 miles    
Events Rain , Thunderstorm    
Averages and records for this station are not official NWS values.
T = Trace of Precipitation, MM = Missing Value Source: NWS Daily Summary

Daily Weather History Graph

Daily Weather History Graph

Search for Another Location

Airport or City:

Trip Planner

Search our weather history database for the weather conditions in past years. The results will help you decide how hot, cold, wet, or windy it might be!

Date:

Astronomy

May. 30, 2014 Rise Set
Actual Time 5:32 AM CDT 8:10 PM CDT
Civil Twilight 5:01 AM CDT 8:41 PM CDT
Nautical Twilight 4:23 AM CDT 9:19 PM CDT
Astronomical Twilight 3:39 AM CDT 10:03 PM CDT
Moon 7:15 AM CDT (5/30) 9:47 PM CDT (5/30)
Length of Visible Light 15h 39m
Length of Day
14h 37m
Waxing Crescent, 4% of the Moon is Illuminated
May 30
Waxing Crescent
Jun 5
First Quarter
Jun 12
Full
Jun 19
Last Quarter
Jun 27
New

Hourly Weather History & Observations

Time (CDT) Temp. Heat Index Dew Point Humidity Pressure Visibility Wind Dir Wind Speed Gust Speed Precip Events Conditions
12:15 AM 71.6 °F - 69.8 °F 94% 30.03 in 7.0 mi Calm Calm - N/A   Clear
12:35 AM 71.6 °F - 69.8 °F 94% 30.03 in 10.0 mi North 3.5 mph - N/A   Scattered Clouds
12:55 AM 71.6 °F - 69.8 °F 94% 30.03 in 10.0 mi North 4.6 mph - N/A   Mostly Cloudy
1:15 AM 71.6 °F - 69.8 °F 94% 30.03 in 7.0 mi Calm Calm - N/A   Scattered Clouds
1:35 AM 71.6 °F - 69.8 °F 94% 30.03 in 7.0 mi Calm Calm - N/A   Mostly Cloudy
1:55 AM 71.6 °F - 69.8 °F 94% 30.03 in 7.0 mi Calm Calm - N/A   Scattered Clouds
2:15 AM 71.6 °F - 69.8 °F 94% 30.02 in 7.0 mi Calm Calm - N/A   Mostly Cloudy
2:35 AM 71.6 °F - 69.8 °F 94% 30.03 in 7.0 mi Calm Calm - N/A   Mostly Cloudy
2:55 AM 71.6 °F - 69.8 °F 94% 30.03 in 7.0 mi Calm Calm - N/A   Scattered Clouds
3:15 AM 71.6 °F - 69.8 °F 94% 30.03 in 7.0 mi Calm Calm - N/A   Scattered Clouds
3:35 AM 71.6 °F - 69.8 °F 94% 30.03 in 7.0 mi Calm Calm - N/A   Clear
3:55 AM 69.8 °F - 69.8 °F 100% 30.03 in 5.0 mi Calm Calm - N/A   Clear
4:15 AM 69.8 °F - 69.8 °F 100% 30.03 in 3.0 mi Calm Calm - N/A   Scattered Clouds
4:35 AM 69.8 °F - 69.8 °F 100% 30.03 in 4.0 mi North 3.5 mph - N/A   Scattered Clouds
4:55 AM 69.8 °F - 69.8 °F 100% 30.03 in 5.0 mi Calm Calm - N/A   Scattered Clouds
5:15 AM 69.8 °F - 69.8 °F 100% 30.03 in 4.0 mi Calm Calm - N/A   Clear
5:35 AM 69.8 °F - 69.8 °F 100% 30.03 in 4.0 mi Calm Calm - N/A   Clear
5:55 AM 69.8 °F - 68.0 °F 94% 30.04 in 2.0 mi Calm Calm - N/A   Clear
6:15 AM 69.8 °F - 68.0 °F 94% 30.05 in 1.5 mi Calm Calm - N/A   Clear
6:35 AM 69.8 °F - 69.8 °F 100% 30.05 in 2.5 mi NE 3.5 mph - N/A   Clear
6:55 AM 71.6 °F - 69.8 °F 94% 30.05 in 3.0 mi Calm Calm - N/A   Clear
7:15 AM 71.6 °F - 71.6 °F 100% 30.06 in 4.0 mi NNE 5.8 mph - N/A   Clear
7:35 AM 73.4 °F - 71.6 °F 94% 30.05 in 5.0 mi NE 3.5 mph - N/A   Clear
7:55 AM 75.2 °F - 71.6 °F 89% 30.06 in 7.0 mi Calm Calm - N/A   Clear
8:15 AM 77.0 °F - 71.6 °F 83% 30.06 in 10.0 mi Calm Calm - N/A   Clear
8:35 AM 78.8 °F - 71.6 °F 78% 30.07 in 10.0 mi Calm Calm - N/A   Clear
8:55 AM 78.8 °F - 71.6 °F 78% 30.07 in 10.0 mi Calm Calm - N/A   Clear
9:15 AM 78.8 °F - 71.6 °F 78% 30.07 in 10.0 mi Calm Calm - N/A   Clear
9:35 AM 80.6 °F 84.6 °F 71.6 °F 74% 30.08 in 10.0 mi Calm Calm - N/A   Clear
9:55 AM 80.6 °F 85.4 °F 73.4 °F 79% 30.08 in 10.0 mi Calm Calm - N/A   Clear
10:15 AM 80.6 °F 85.4 °F 73.4 °F 79% 30.08 in 10.0 mi Calm Calm - N/A   Scattered Clouds
10:35 AM 82.4 °F 87.2 °F 71.6 °F 70% 30.09 in 10.0 mi East 4.6 mph - N/A   Scattered Clouds
10:55 AM 80.6 °F 85.4 °F 73.4 °F 79% 30.09 in 10.0 mi NNE 8.1 mph - N/A   Scattered Clouds
11:15 AM 80.6 °F 84.6 °F 71.6 °F 74% 30.09 in 7.0 mi ENE 5.8 mph - N/A Rain Light Rain
11:35 AM 82.4 °F 88.2 °F 73.4 °F 74% 30.09 in 10.0 mi East 10.4 mph - N/A   Clear
11:55 AM 80.6 °F 83.2 °F 68.0 °F 65% 30.08 in 10.0 mi NE 3.5 mph - N/A   Clear
12:15 PM 82.4 °F 87.2 °F 71.6 °F 70% 30.07 in 10.0 mi Calm Calm - N/A   Clear
12:35 PM 82.4 °F 87.2 °F 71.6 °F 70% 30.06 in 10.0 mi NNE 3.5 mph - N/A   Scattered Clouds
12:55 PM 84.2 °F 89.6 °F 71.6 °F 66% 30.06 in 10.0 mi ENE 5.8 mph - N/A   Clear
1:15 PM 86.0 °F 91.8 °F 71.6 °F 62% 30.05 in 10.0 mi Calm Calm - N/A   Clear
1:35 PM 86.0 °F 90.4 °F 69.8 °F 58% 30.05 in 10.0 mi SE 9.2 mph - N/A   Clear
1:55 PM 84.2 °F 89.6 °F 71.6 °F 66% 30.04 in 10.0 mi SSE 4.6 mph - N/A Thunderstorm Scattered Clouds